This is the latest recevied weather packets stored in our database for station/object SP3VBV-2. If no packets are shown the sender has not sent any weather packets the latest 10 day(s).
| Time | Temp. | Humidity | Pressure | Rain* | Wind** | Luminosity | Snow |
|---|---|---|---|---|---|---|---|
| 1777798912 | 21.11° C | 39% | 1016.9 hPa | - | - | - | - |
| 1777798311 | 20.56° C | 41% | 1016.9 hPa | - | - | - | - |
| 1777797711 | 20° C | 40% | 1017 hPa | - | - | - | - |
| 1777796527 | 20° C | 42% | 1017 hPa | - | - | - | - |
| 1777796511 | 19.44° C | 43% | 1017 hPa | - | - | - | - |
| 1777795319 | 18.89° C | 43% | 1017 hPa | - | - | - | - |
| 1777794719 | 18.33° C | 47% | 1017 hPa | - | - | - | - |
| 1777794125 | 17.78° C | 48% | 1017 hPa | - | - | - | - |
| 1777793519 | 17.78° C | 48% | 1017.1 hPa | - | - | - | - |
| 1777793046 | 17.22° C | 48% | 1017.1 hPa | - | - | - | - |
| 1777792911 | 17.22° C | 49% | 1016.9 hPa | - | - | - | - |
| 1777792311 | 16.67° C | 49% | 1017 hPa | - | - | - | - |
| 1777791711 | 16.67° C | 51% | 1016.8 hPa | - | - | - | - |
| 1777791111 | 16.11° C | 52% | 1016.8 hPa | - | - | - | - |
| 1777790511 | 15.56° C | 53% | 1016.9 hPa | - | - | - | - |
| 1777789911 | 15.56° C | 53% | 1016.8 hPa | - | - | - | - |
| 1777789311 | 15° C | 55% | 1016.8 hPa | - | - | - | - |
| 1777788711 | 14.44° C | 56% | 1016.8 hPa | - | - | - | - |
| 1777788111 | 13.89° C | 59% | 1016.8 hPa | - | - | - | - |
| 1777787511 | 13.33° C | 61% | 1016.9 hPa | - | - | - | - |
| 1777786911 | 13.33° C | 61% | 1016.9 hPa | - | - | - | - |
| 1777785757 | 12.78° C | 60% | 1016.9 hPa | - | - | - | - |
| 1777785197 | 12.22° C | 63% | 1016.9 hPa | - | - | - | - |
| 1777784519 | 12.22° C | 61% | 1017.2 hPa | - | - | - | - |
| 1777783919 | 11.11° C | 67% | 1017.2 hPa | - | - | - | - |
* Rain since midnight (hover to see other rain measurements)
** Current wind speed in m/s (hover to see current wind gust speed)